User: anonymous   Login
Location: Oshawa
(43.9000°N, 78.8670°W)
Time: 17:18:35
(UTC-05:00)
Language:

CARTOSAT-1 - Orbit

View from above orbital plane
View from above orbital plane
View from above satellite
View from above satellite

Ground track
Ground track

The orbit data is extracted from the following two-line orbital elements,

1 28649U 05017A   17347.44155247 -.00000869  00000-0 -99385-4 0  9999
2 28649  97.8444  58.8659 0003033 139.4903 220.6536 14.83454563682559
Epoch (UTC): 13 December 2017 10:35:50
Eccentricity: 0.0003033
inclination: 97.8444°
perigee height: 616 km
apogee height: 620 km
right ascension of ascending node: 58.8659°
argument of perigee: 139.4903°
revolutions per day: 14.83454563
mean anomaly at epoch: 220.6536°
orbit number at epoch: 68255

The dashed part of the orbit path shows where the satellite is in the earth's shadow,  

DLR